Location: Eexterzandvoort
(53.0303°N, 6.7884°E)
Time: 07:05:19
(UTC+00:00)

CENTAUR R/B - Pass Details

Date: 19 May 2025
Orbit: 645 x 1537 km, 63.4° (Epoch: 14 June)

Event Time Altitude Azimuth Distance (km) Brightness Sun altitude
Rises 23:12:03 0° 312° (NW) 4,061 6.5 -16.9°
Reaches altitude 10° 23:14:36 10° 312° (NW) 3,209 5.8 -16.9°
Maximum altitude 23:22:38 82° 227° (SW) 1,424 3.2 -17.0°
Enters shadow 23:31:27 12° 141° (SE) 3,528 4.9 -17.0°
